User: anonymous
Location: *
(40.4270°N, 9.4940°E)
Time: 23:34:21
(UTC+02:00)
Language:

Okean 2 - Orbit

View from above orbital plane
View from above orbital plane
View from above satellite
View from above satellite

Ground track
Ground track

The orbit data is extracted from the following two-line orbital elements,

1 20510U 90018A   14294.08910383  .00004699  00000-0  41179-3 0  8642
2 20510 082.5203 021.7960 0013232 021.6243 045.8928 14.96410996336203
Epoch (UTC): 21 October 2014 02:08:18
Eccentricity: 0.0013232
inclination: 82.5203°
perigee height: 569 km
apogee height: 587 km
right ascension of ascending node: 21.7960°
argument of perigee: 21.6243°
revolutions per day: 14.96410996
mean anomaly at epoch: 45.8928°
orbit number at epoch: 33620

The dashed part of the orbit path shows where the satellite is in the earth's shadow,  

DLR